Weather History for KFWN - January, 2014

Change the Weather History Date:

Tuesday, January 14, 2014

  Actual Average Record
Temperature  
Mean Temperature 40 °F -  
Max Temperature 46 °F 33 °F 66 °F (2005)
Min Temperature 33 °F 10 °F -22 °F (1981)
Degree Days  
Heating Degree Days 24    
Moisture  
Dew Point 41 °F    
Average Humidity 96    
Maximum Humidity 100    
Minimum Humidity 63    
Precipitation  
Precipitation 0.34 in - - ()
Sea Level Pressure  
Sea Level Pressure 29.74 in    
Wind  
Wind Speed 1 mph (SW)    
Max Wind Speed 4 mph    
Max Gust Speed -    
Visibility 4 miles    
Events Fog , Rain    
Averages and records for this station are not official NWS values.
T = Trace of Precipitation, MM = Missing Value Source: NWS Daily Summary

Daily Weather History Graph

Daily Weather History Graph

Search for Another Location

Airport or City:

Trip Planner

Search our weather history database for the weather conditions in past years. The results will help you decide how hot, cold, wet, or windy it might be!

Date:

Astronomy

Jan. 14, 2014 Rise Set
Actual Time 7:22 AM EST 4:53 PM EST
Civil Twilight 6:51 AM EST 5:23 PM EST
Nautical Twilight 6:17 AM EST 5:57 PM EST
Astronomical Twilight 5:44 AM EST 6:30 PM EST
Moon 3:56 PM EST (1/14) 5:54 AM EST (1/14)
Length of Visible Light 10h 32m
Length of Day
9h 31m
Waxing Gibbous, 98% of the Moon is Illuminated
Jan 14
Waxing Gibbous
Jan 15
Full
Jan 24
Last Quarter
Jan 30
New
Feb 6
First Quarter

Hourly Weather History & Observations

Time (EST) Temp. Windchill Dew Point Humidity Pressure Visibility Wind Dir Wind Speed Gust Speed Precip Events Conditions
12:53 AM 46.0 °F 44.8 °F 34.0 °F 63% 29.83 in 10.0 mi WSW 3.5 mph - N/A   Clear
1:53 AM 41.0 °F - 34.0 °F 76% 29.83 in 10.0 mi Calm Calm - N/A   Clear
2:53 AM 39.0 °F 36.8 °F 34.0 °F 82% 29.81 in 10.0 mi SW 3.5 mph - N/A   Partly Cloudy
3:53 AM 37.9 °F 35.5 °F 34.0 °F 86% 29.81 in 10.0 mi West 3.5 mph - N/A   Overcast
4:53 AM 39.0 °F - 34.0 °F 82% 29.80 in 10.0 mi Calm Calm - N/A   Overcast
5:53 AM 43.0 °F 41.3 °F 37.9 °F 82% 29.78 in 10.0 mi SSW 3.5 mph - 0.00 in Rain Light Rain
6:53 AM 41.0 °F - 39.0 °F 93% 29.78 in 10.0 mi Calm Calm - 0.00 in Rain Light Rain
7:53 AM 39.9 °F - 37.9 °F 93% 29.78 in 10.0 mi Calm Calm - 0.00 in Rain Light Rain
8:21 AM 39.9 °F - 39.0 °F 97% 29.77 in 10.0 mi Calm Calm - 0.00 in   Overcast
8:53 AM 41.0 °F - 39.9 °F 96% 29.79 in 10.0 mi Calm Calm - 0.00 in Rain Light Rain
9:53 AM 43.0 °F - 42.1 °F 97% 29.77 in 7.0 mi Calm Calm - 0.01 in   Overcast
10:44 AM 43.0 °F - 42.1 °F 97% 29.75 in 3.0 mi Calm Calm - 0.03 in Rain Light Rain
10:53 AM 43.0 °F - 43.0 °F 100% 29.76 in 4.0 mi Calm Calm - 0.04 in Rain Light Rain
11:15 AM 44.1 °F - 42.1 °F 93% 29.74 in 1.8 mi Calm Calm - 0.03 in Rain Rain
11:27 AM 44.1 °F - 43.0 °F 96% 29.74 in 2.5 mi Calm Calm - 0.05 in Rain Light Rain
11:35 AM 44.1 °F - 43.0 °F 96% 29.75 in 4.0 mi Calm Calm - 0.05 in Rain Light Rain
11:45 AM 44.1 °F - 43.0 °F 96% 29.74 in 1.8 mi Calm Calm - 0.06 in Rain Light Rain
11:53 AM 44.1 °F - 44.1 °F 100% 29.74 in 2.5 mi Calm Calm - 0.07 in Rain Light Rain
12:00 PM 44.1 °F - 44.1 °F 100% 29.73 in 3.0 mi Calm Calm - 0.00 in Rain Light Rain
12:17 PM 44.1 °F - 44.1 °F 100% 29.72 in 4.0 mi Calm Calm - 0.00 in   Overcast
12:31 PM 44.1 °F - 44.1 °F 100% 29.71 in 1.8 mi Calm Calm - 0.01 in Rain Light Rain
12:39 PM 44.1 °F - 44.1 °F 100% 29.70 in 2.5 mi Calm Calm - 0.01 in Rain Light Rain
12:43 PM 44.1 °F - 44.1 °F 100% 29.70 in 3.0 mi Calm Calm - 0.02 in Rain Light Rain
12:53 PM 44.1 °F - 44.1 °F 100% 29.70 in 4.0 mi Calm Calm - 0.02 in Rain Light Rain
1:06 PM 44.1 °F - 44.1 °F 100% 29.69 in 4.0 mi Calm Calm - 0.00 in   Overcast
1:13 PM 44.1 °F - 43.0 °F 96% 29.68 in 4.0 mi Calm Calm - 0.00 in   Overcast
1:25 PM 44.1 °F - 43.0 °F 96% 29.68 in 1.8 mi Calm Calm - 0.01 in Rain Light Rain
1:30 PM 44.1 °F - 43.0 °F 96% 29.69 in 1.5 mi Calm Calm - 0.02 in Rain Light Rain
1:44 PM 44.1 °F - 43.0 °F 96% 29.69 in 2.0 mi Calm Calm - 0.04 in Rain Light Rain
1:51 PM 44.6 °F - 44.6 °F 100% 29.69 in 1.8 mi Calm Calm - 0.05 in Rain Light Rain
1:53 PM 44.1 °F - 44.1 °F 100% 29.70 in 1.8 mi Calm Calm - 0.05 in Rain Light Rain
2:21 PM 44.1 °F - 44.1 °F 100% 29.70 in 1.2 mi Calm Calm - 0.04 in Rain Light Rain
2:24 PM 44.1 °F - 44.1 °F 100% 29.69 in 1.5 mi Calm Calm - 0.05 in Rain Light Rain
2:38 PM 44.1 °F - 43.0 °F 96% 29.69 in 2.0 mi Calm Calm - 0.06 in Rain Light Rain
2:53 PM 44.1 °F 42.5 °F 43.0 °F 96% 29.71 in 2.0 mi SW 3.5 mph - 0.08 in Rain Light Rain
3:04 PM 44.1 °F - 43.0 °F 96% 29.70 in 3.0 mi Calm Calm - 0.00 in Rain Light Rain
3:48 PM 44.6 °F - 42.8 °F 93% 29.70 in 1.5 mi Calm Calm - 0.02 in Rain Light Rain
3:50 PM 42.8 °F - 42.8 °F 100% 29.69 in 0.8 mi Calm Calm - 0.02 in Rain Light Rain
3:53 PM 43.0 °F - 42.1 °F 97% 29.70 in 0.8 mi Calm Calm - 0.03 in Rain Light Rain
4:26 PM 43.0 °F - 43.0 °F 100% 29.68 in 1.5 mi Calm Calm - 0.01 in   Overcast
4:39 PM 43.0 °F - 42.1 °F 97% 29.68 in 0.8 mi Calm Calm - 0.01 in Rain Light Rain
4:53 PM 42.1 °F - 42.1 °F 100% 29.70 in 0.2 mi Calm Calm - 0.01 in Fog Fog
5:43 PM 41.0 °F 39.0 °F 41.0 °F 100% 29.72 in 1.0 mi SSW 3.5 mph - 0.01 in   Overcast
5:50 PM 41.0 °F - 41.0 °F 100% 29.72 in 0.5 mi Calm Calm - 0.01 in Fog Fog
5:53 PM 41.0 °F - 41.0 °F 100% 29.73 in 0.5 mi Calm Calm - 0.01 in Fog , Rain Light Rain
6:05 PM 39.9 °F - 39.9 °F 100% 29.72 in 0.5 mi Calm Calm - 0.00 in Fog Fog
6:26 PM 41.0 °F 39.0 °F 41.0 °F 100% 29.71 in 0.5 mi WSW 3.5 mph - 0.00 in Fog Fog
6:33 PM 39.9 °F - 39.9 °F 100% 29.72 in 0.8 mi Calm Calm - 0.00 in   Overcast
6:36 PM 39.9 °F 37.8 °F 39.9 °F 100% 29.72 in 1.5 mi WSW 3.5 mph - 0.00 in   Overcast
6:41 PM 39.9 °F - 39.9 °F 100% 29.71 in 3.0 mi Calm Calm - 0.00 in   Overcast
6:53 PM 39.9 °F 37.8 °F 39.9 °F 100% 29.73 in 6.0 mi WSW 3.5 mph - 0.00 in   Overcast
7:13 PM 39.9 °F - 39.0 °F 97% 29.75 in 2.0 mi Calm Calm - N/A   Overcast
7:22 PM 39.0 °F - 39.0 °F 100% 29.76 in 5.0 mi Calm Calm - N/A   Overcast
7:53 PM 42.1 °F 40.2 °F 42.1 °F 100% 29.77 in 7.0 mi Variable 3.5 mph - 0.01 in Rain Light Rain
8:13 PM 42.1 °F 40.2 °F 41.0 °F 96% 29.79 in 7.0 mi WSW 3.5 mph - 0.01 in   Overcast
8:53 PM 42.1 °F - 41.0 °F 96% 29.83 in 10.0 mi Calm Calm - 0.01 in   Overcast
9:00 PM 42.1 °F - 39.9 °F 92% 29.82 in 10.0 mi Calm Calm - N/A   Mostly Cloudy
9:53 PM 41.0 °F - 37.0 °F 86% 29.84 in 10.0 mi Calm Calm - N/A   Clear
10:53 PM 35.1 °F - 33.1 °F 92% 29.84 in 5.0 mi Calm Calm - N/A   Clear
11:53 PM 33.1 °F - 32.0 °F 96% 29.87 in 3.0 mi Calm Calm - N/A   Scattered Clouds